Location: Cazarilh
(42.9578°N, 0.5819°E)
Time: 16:29:54
(UTC+00:00)

Cosmos 2263 Rocket - Pass Details

Date: 11 December 2019
Orbit: 824 x 848 km, 71.0° (Epoch: 24 January)

Event Time Altitude Azimuth Distance (km) Brightness Sun altitude
Rises 06:22:20 0° 244° (WSW) 3,360 4.9 -10.0°
Reaches altitude 10° 06:25:18 10° 259° (W) 2,427 4.1 -9.5°
Maximum altitude 06:29:34 22° 310° (NW) 1,730 3.3 -8.8°
Drops below altitude 10° 06:33:51 10° 0° (N) 2,433 4.4 -8.0°
Sets 06:36:51 0° 16° (NNE) 3,369 5.2 -7.5°
